Hourly Data Report for April 21, 2021

KUGAARUK CLIMATE
NUNAVUT
Current Station Operator: ECCC - MSC

68°32'15.060" N
89°47'47.020" W
15.80 m
2303094
71407
NBB

Download Data

Hourly Data (April 2021)
Hourly Data Report for April 21, 2021
TIME
LST
Temp Definition
°C
Dew Point Definition
°C
Rel Hum Definition
%
Precip. Amount Definition
mm

Wind Dir Definition
10's deg

Wind Spd Definition
km/h
Visibility Definition
km
Stn Press Definition
kPa
Hmdx Definition


Wind Chill Definition


Weather Definition


00:00 -18.6 -20.9 82 0.0 5 9   100.62   -25 LegendNANA
01:00 -17.6 -20.1 80 0.0 36 10   100.53   -24 LegendNANA
02:00 -17.0 -19.5 80 0.0 5 5   100.45   -21 LegendNANA
03:00 -17.2 -19.7 81 0.0 2 1   100.39   -18 LegendNANA
04:00 -16.7 -19.2 81 0.0 1 4   100.28   -20 LegendNANA
05:00 -15.0 -17.9 79 0.3 36 4   100.19   -18 LegendNANA
06:00 -13.3 -16.6 76 0.0 18 16   100.12   -21 LegendNANA
07:00 -13.0 -16.1 78 0.0 17 16   100.02   -21 LegendNANA
08:00 -12.4 -15.6 77 0.3 19 23   99.93   -21 LegendNANA
09:00 -12.0 -15.3 77 0.0 21 27   99.85   -22 LegendNANA
10:00 -11.2 -14.4 78 0.2 21 32   99.79   -21 LegendNANA
11:00 -10.3 -14.0 74 0.0 21 23   99.77   -19 LegendNANA
12:00 -9.5 -13.1 75 0.0 22 17   99.73   -17 LegendNANA
13:00 -8.9 -12.0 78 0.0 22 16   99.70   -16 LegendNANA
14:00 -8.4 -11.3 80 0.0 26 19   99.68   -16 LegendNANA
15:00 -8.8 -11.8 78 0.0 27 13   99.69   -15 LegendNANA
16:00 -8.8 -11.5 81 0.0 27 17   99.68   -16 LegendNANA
17:00 -9.2 -11.2 85 0.0 24 15   99.67   -16 LegendNANA
18:00 -9.6 -11.6 85 0.0 26 16   99.66   -16 LegendNANA
19:00 -9.9 -12.3 83 0.0 27 18   99.68   -17 LegendNANA
20:00 -10.5 -12.1 88 0.0 27 18   99.70   -18 LegendNANA
21:00 -10.3 -12.0 87 0.0 25 20   99.73   -18 LegendNANA
22:00 -10.9 -12.8 86 0.0 26 21   99.76   -19 LegendNANA
23:00 -11.3 -14.0 80 0.2 27 22   99.79   -20 LegendNANA

Notes on Data Quality.

Legend

  • E = Estimated
  • M = Missing
  • NA = Not Available*
  • [empty] = Indicates an unobserved value
Date modified: